| time (UTC) | temp C | wind direction | speed KPH | gust KPH | rain 1hr cm | rain 24hr cm | rain mn cm | humidity % | barometer mb |
| 20260506143007 | 21 | 126 | 4.8 | 8.0 | 0.00 | 0.00 | 0.00 | 61 | 1010.9 |
| 20260506142504 | 20 | 55 | 4.8 | 11.3 | 0.00 | 0.00 | 0.00 | 62 | 1011.0 |
| 20260506142002 | 20 | 25 | 6.4 | 9.7 | 0.00 | 0.00 | 0.00 | 62 | 1010.9 |
| 20260506141459 | 20 | 7 | 8.0 | 9.7 | 0.00 | 0.00 | 0.00 | 62 | 1011.0 |
| 20260506140958 | 20 | 44 | 9.7 | 11.3 | 0.00 | 0.00 | 0.00 | 62 | 1011.1 |
| 20260506140454 | 20 | 134 | 11.3 | 14.5 | 0.00 | 0.00 | 0.00 | 62 | 1011.0 |
| 20260506135951 | 20 | 88 | 11.3 | 14.5 | 0.00 | 0.00 | 0.00 | 62 | 1011.0 |
| 20260506135448 | 20 | 79 | 9.7 | 19.3 | 0.00 | 0.00 | 0.00 | 63 | 1011.0 |
| 20260506134944 | 20 | 62 | 6.4 | 16.1 | 0.00 | 0.00 | 0.00 | 63 | 1011.3 |
| 20260506134440 | 20 | 27 | 4.8 | 12.9 | 0.00 | 0.00 | 0.00 | 63 | 1011.1 |
| 20260506133937 | 20 | 81 | 11.3 | 14.5 | 0.00 | 0.00 | 0.00 | 63 | 1011.1 |
| 20260506133435 | 20 | 71 | 9.7 | 16.1 | 0.00 | 0.00 | 0.00 | 63 | 1011.0 |
| 20260506132931 | 20 | 80 | 11.3 | 12.9 | 0.00 | 0.00 | 0.00 | 63 | 1011.2 |
| 20260506132428 | 20 | 117 | 6.4 | 19.3 | 0.00 | 0.00 | 0.00 | 64 | 1011.2 |
| 20260506131926 | 20 | 37 | 6.4 | 14.5 | 0.00 | 0.00 | 0.00 | 64 | 1011.2 |
| 20260506131422 | 20 | 109 | 8.0 | 12.9 | 0.00 | 0.00 | 0.00 | 65 | 1011.2 |
| 20260506130919 | 20 | 120 | 6.4 | 14.5 | 0.00 | 0.00 | 0.00 | 64 | 1011.1 |
| 20260506130416 | 20 | 91 | 12.9 | 14.5 | 0.00 | 0.00 | 0.00 | 65 | 1011.1 |
| 20260506125914 | 20 | 56 | 11.3 | 16.1 | 0.00 | 0.00 | 0.00 | 65 | 1011.0 |
| 20260506125412 | 20 | 83 | 12.9 | 14.5 | 0.00 | 0.00 | 0.00 | 65 | 1011.0 |
| 20260506124910 | 19 | 74 | 9.7 | 20.9 | 0.00 | 0.00 | 0.00 | 66 | 1011.0 |
| 20260506124407 | 19 | 80 | 12.9 | 14.5 | 0.00 | 0.00 | 0.00 | 67 | 1010.9 |
| 20260506123905 | 18 | 47 | 6.4 | 19.3 | 0.00 | 0.00 | 0.00 | 68 | 1011.1 |
| 20260506123402 | 18 | 77 | 4.8 | 14.5 | 0.00 | 0.00 | 0.00 | 68 | 1011.2 |
| 20260506122859 | 18 | 30 | 8.0 | 14.5 | 0.00 | 0.00 | 0.00 | 68 | 1011.1 |
| 20260506122356 | 18 | 57 | 8.0 | 9.7 | 0.00 | 0.00 | 0.00 | 68 | 1011.2 |
| 20260506121855 | 18 | 20 | 6.4 | 12.9 | 0.00 | 0.00 | 0.00 | 68 | 1011.3 |
| 20260506121351 | 18 | 112 | 6.4 | 11.3 | 0.00 | 0.00 | 0.00 | 68 | 1011.4 |
| 20260506120848 | 18 | 133 | 9.7 | 12.9 | 0.00 | 0.00 | 0.00 | 68 | 1011.5 |
| 20260506120346 | 18 | 35 | 8.0 | 14.5 | 0.00 | 0.00 | 0.00 | 67 | 1011.5 |
| 20260506115843 | 19 | 51 | 9.7 | 12.9 | 0.00 | 0.00 | 0.00 | 67 | 1011.6 |
| 20260506115341 | 18 | 55 | 8.0 | 12.9 | 0.00 | 0.00 | 0.00 | 68 | 1011.5 |
| 20260506114839 | 18 | 61 | 6.4 | 20.9 | 0.00 | 0.00 | 0.00 | 69 | 1011.4 |
| 20260506114336 | 18 | 64 | 9.7 | 19.3 | 0.00 | 0.00 | 0.00 | 69 | 1011.7 |
| 20260506113835 | 18 | 32 | 9.7 | 17.7 | 0.00 | 0.00 | 0.00 | 69 | 1011.7 |
| 20260506113332 | 18 | 60 | 9.7 | 12.9 | 0.00 | 0.00 | 0.00 | 69 | 1011.5 |
| 20260506112828 | 18 | 59 | 9.7 | 17.7 | 0.00 | 0.00 | 0.00 | 70 | 1011.5 |
| 20260506112326 | 18 | 71 | 11.3 | 14.5 | 0.00 | 0.00 | 0.00 | 70 | 1011.7 |
| 20260506111823 | 18 | 76 | 9.7 | 12.9 | 0.00 | 0.00 | 0.00 | 70 | 1011.5 |
| 20260506111321 | 18 | 40 | 6.4 | 12.9 | 0.00 | 0.00 | 0.00 | 70 | 1011.5 |
| 20260506110819 | 18 | 19 | 4.8 | 14.5 | 0.00 | 0.00 | 0.00 | 71 | 1011.3 |
| 20260506110315 | 18 | 98 | 8.0 | 9.7 | 0.00 | 0.00 | 0.00 | 72 | 1011.4 |
| 20260506105812 | 18 | 69 | 4.8 | 14.5 | 0.00 | 0.00 | 0.00 | 72 | 1011.4 |
| 20260506105309 | 17 | 47 | 12.9 | 14.5 | 0.00 | 0.00 | 0.00 | 73 | 1011.3 |
| 20260506104806 | 17 | 110 | 14.5 | 14.5 | 0.00 | 0.00 | 0.00 | 73 | 1011.4 |
| 20260506104304 | 17 | 12 | 3.2 | 9.7 | 0.00 | 0.00 | 0.00 | 74 | 1011.4 |
| 20260506103801 | 17 | 75 | 8.0 | 9.7 | 0.00 | 0.00 | 0.00 | 75 | 1011.4 |
| 20260506103258 | 17 | 59 | 6.4 | 9.7 | 0.00 | 0.00 | 0.00 | 75 | 1011.4 |
| 20260506102756 | 17 | 108 | 9.7 | 16.1 | 0.00 | 0.00 | 0.00 | 75 | 1011.3 |
| 20260506102254 | 17 | 12 | 4.8 | 9.7 | 0.00 | 0.00 | 0.00 | 75 | 1011.3 |
| 20260506101750 | 16 | 52 | 8.0 | 9.7 | 0.00 | 0.00 | 0.00 | 76 | 1011.3 |
| 20260506101247 | 16 | 17 | 4.8 | 9.7 | 0.00 | 0.00 | 0.00 | 76 | 1011.2 |
| 20260506100745 | 16 | 46 | 6.4 | 9.7 | 0.00 | 0.00 | 0.00 | 77 | 1011.2 |
| 20260506100243 | 16 | 32 | 8.0 | 9.7 | 0.00 | 0.00 | 0.00 | 77 | 1011.2 |
| 20260506095741 | 16 | 37 | 4.8 | 8.0 | 0.00 | 0.00 | 0.00 | 77 | 1011.1 |
| 20260506095238 | 16 | 73 | 4.8 | 9.7 | 0.00 | 0.00 | 0.00 | 77 | 1011.2 |
| 20260506094734 | 16 | 74 | 4.8 | 8.0 | 0.00 | 0.00 | 0.00 | 77 | 1011.4 |
| 20260506094233 | 16 | 35 | 8.0 | 14.5 | 0.00 | 0.00 | 0.00 | 77 | 1011.1 |
| 20260506093731 | 16 | 71 | 4.8 | 11.3 | 0.00 | 0.00 | 0.00 | 77 | 1011.1 |
| 20260506093228 | 16 | 76 | 6.4 | 14.5 | 0.00 | 0.00 | 0.00 | 77 | 1011.3 |
| 20260506092726 | 16 | 23 | 4.8 | 11.3 | 0.00 | 0.00 | 0.00 | 77 | 1011.2 |
| 20260506092223 | 16 | 26 | 3.2 | 9.7 | 0.00 | 0.00 | 0.00 | 77 | 1011.3 |
| 20260506091721 | 16 | 44 | 6.4 | 11.3 | 0.00 | 0.00 | 0.00 | 77 | 1011.4 |
| 20260506091218 | 16 | 65 | 4.8 | 9.7 | 0.00 | 0.00 | 0.00 | 76 | 1011.4 |
| 20260506090716 | 16 | 12 | 6.4 | 9.7 | 0.00 | 0.00 | 0.00 | 76 | 1011.4 |
| 20260506090212 | 16 | 69 | 8.0 | 12.9 | 0.00 | 0.00 | 0.00 | 76 | 1011.4 |
| 20260506085709 | 16 | 79 | 4.8 | 8.0 | 0.00 | 0.00 | 0.00 | 76 | 1011.5 |
| 20260506085205 | 16 | 82 | 6.4 | 11.3 | 0.00 | 0.00 | 0.00 | 76 | 1011.5 |
| 20260506084702 | 16 | 88 | 6.4 | 9.7 | 0.00 | 0.00 | 0.00 | 76 | 1011.5 |
| 20260506084158 | 16 | 85 | 8.0 | 11.3 | 0.00 | 0.00 | 0.00 | 75 | 1011.4 |
| 20260506083655 | 16 | 101 | 6.4 | 14.5 | 0.00 | 0.00 | 0.00 | 75 | 1011.4 |
| 20260506083153 | 16 | 92 | 4.8 | 9.7 | 0.00 | 0.00 | 0.00 | 75 | 1011.7 |
| 20260506082650 | 16 | 344 | 3.2 | 12.9 | 0.00 | 0.00 | 0.00 | 75 | 1011.7 |
| 20260506082145 | 16 | 30 | 4.8 | 9.7 | 0.00 | 0.00 | 0.00 | 75 | 1011.6 |
| 20260506081643 | 17 | 97 | 4.8 | 9.7 | 0.00 | 0.00 | 0.00 | 75 | 1011.6 |
| 20260506081141 | 17 | 60 | 9.7 | 12.9 | 0.00 | 0.00 | 0.00 | 74 | 1011.7 |
| 20260506080638 | 17 | 109 | 3.2 | 11.3 | 0.00 | 0.00 | 0.00 | 74 | 1011.7 |
| 20260506080135 | 17 | 102 | 9.7 | 11.3 | 0.00 | 0.00 | 0.00 | 74 | 1011.6 |
| 20260506073118 | 17 | 28 | 6.4 | 11.3 | 0.00 | 0.00 | 0.00 | 73 | 1011.7 |
| 20260506072615 | 17 | 35 | 6.4 | 11.3 | 0.00 | 0.00 | 0.00 | 73 | 1011.7 |
| 20260506072113 | 16 | 62 | 9.7 | 11.3 | 0.00 | 0.00 | 0.00 | 72 | 1011.4 |
| 20260506071610 | 17 | 81 | 4.8 | 12.9 | 0.00 | 0.00 | 0.00 | 72 | 1011.8 |
| 20260506071108 | 17 | 74 | 8.0 | 14.5 | 0.00 | 0.00 | 0.00 | 72 | 1011.7 |
| 20260506070605 | 17 | 78 | 6.4 | 11.3 | 0.00 | 0.00 | 0.00 | 72 | 1011.9 |
| 20260506062039 | 18 | 84 | 8.0 | 11.3 | 0.00 | 0.00 | 0.00 | 68 | 1011.7 |
| 20260506061535 | 18 | 38 | 6.4 | 9.7 | 0.00 | 0.00 | 0.00 | 67 | 1011.7 |
| 20260506061033 | 18 | 47 | 4.8 | 9.7 | 0.00 | 0.00 | 0.00 | 66 | 1011.6 |
| 20260506060531 | 18 | 73 | 9.7 | 12.9 | 0.00 | 0.00 | 0.00 | 66 | 1011.5 |
| 20260506051000 | 20 | 150 | 8.0 | 12.9 | 0.00 | 0.00 | 0.00 | 63 | 1012.0 |
| 20260506050457 | 20 | 107 | 11.3 | 17.7 | 0.00 | 0.00 | 0.00 | 62 | 1012.2 |
| 20260506044948 | 20 | 111 | 12.9 | 19.3 | 0.00 | 0.00 | 0.00 | 62 | 1012.1 |
| 20260506044446 | 20 | 65 | 4.8 | 12.9 | 0.00 | 0.00 | 0.00 | 61 | 1012.3 |
| 20260506043942 | 20 | 72 | 6.4 | 11.3 | 0.00 | 0.00 | 0.00 | 61 | 1012.4 |
| 20260506043440 | 20 | 39 | 6.4 | 12.9 | 0.00 | 0.00 | 0.00 | 61 | 1012.3 |
| 20260506042937 | 20 | 73 | 9.7 | 12.9 | 0.00 | 0.00 | 0.00 | 61 | 1012.2 |
| 20260506042437 | 20 | 68 | 11.3 | 14.5 | 0.00 | 0.00 | 0.00 | 60 | 1012.1 |
| 20260506041934 | 20 | 15 | 6.4 | 19.3 | 0.00 | 0.00 | 0.00 | 60 | 1012.3 |
| 20260506041432 | 20 | 40 | 8.0 | 19.3 | 0.00 | 0.00 | 0.00 | 60 | 1012.3 |
| 20260506040929 | 20 | 71 | 6.4 | 17.7 | 0.00 | 0.00 | 0.00 | 60 | 1012.1 |
| 20260506040427 | 20 | 62 | 8.0 | 19.3 | 0.00 | 0.00 | 0.00 | 59 | 1012.2 |
| 20260506035922 | 20 | 100 | 9.7 | 17.7 | 0.00 | 0.00 | 0.00 | 59 | 1012.0 |
| 20260506035420 | 20 | 65 | 9.7 | 12.9 | 0.00 | 0.00 | 0.00 | 59 | 1012.0 |
| 20260506034916 | 20 | 53 | 9.7 | 20.9 | 0.00 | 0.00 | 0.00 | 58 | 1012.0 |
| 20260506034414 | 20 | 9 | 6.4 | 17.7 | 0.00 | 0.00 | 0.00 | 58 | 1012.3 |
| 20260506033911 | 20 | 86 | 9.7 | 20.9 | 0.00 | 0.00 | 0.00 | 58 | 1012.0 |
| 20260506033408 | 20 | 45 | 6.4 | 16.1 | 0.00 | 0.00 | 0.00 | 58 | 1012.0 |
| 20260506032905 | 20 | 93 | 9.7 | 17.7 | 0.00 | 0.00 | 0.00 | 57 | 1011.8 |
| 20260506032402 | 20 | 62 | 9.7 | 17.7 | 0.00 | 0.00 | 0.00 | 57 | 1011.9 |
| 20260506031858 | 20 | 13 | 8.0 | 19.3 | 0.00 | 0.00 | 0.00 | 57 | 1012.0 |
| 20260506031356 | 20 | 107 | 11.3 | 17.7 | 0.00 | 0.00 | 0.00 | 57 | 1011.8 |
| 20260506030853 | 20 | 73 | 6.4 | 19.3 | 0.00 | 0.00 | 0.00 | 57 | 1012.1 |
| 20260506030351 | 20 | 78 | 9.7 | 16.1 | 0.00 | 0.00 | 0.00 | 56 | 1011.8 |
| 20260506025848 | 20 | 103 | 8.0 | 14.5 | 0.00 | 0.00 | 0.00 | 56 | 1011.9 |
| 20260506025344 | 20 | 54 | 11.3 | 16.1 | 0.00 | 0.00 | 0.00 | 56 | 1012.1 |
| 20260506024841 | 20 | 98 | 8.0 | 17.7 | 0.00 | 0.00 | 0.00 | 56 | 1011.9 |
| 20260506024338 | 20 | 7 | 9.7 | 14.5 | 0.00 | 0.00 | 0.00 | 56 | 1012.0 |
| 20260506023834 | 20 | 89 | 6.4 | 11.3 | 0.00 | 0.00 | 0.00 | 56 | 1011.9 |
| 20260506023331 | 20 | 117 | 8.0 | 12.9 | 0.00 | 0.00 | 0.00 | 55 | 1012.0 |
| 20260506022828 | 20 | 73 | 9.7 | 24.1 | 0.00 | 0.00 | 0.00 | 55 | 1012.0 |
| 20260506022326 | 20 | 93 | 9.7 | 12.9 | 0.00 | 0.00 | 0.00 | 55 | 1012.0 |
| 20260506021824 | 20 | 59 | 8.0 | 11.3 | 0.00 | 0.00 | 0.00 | 55 | 1012.0 |
| 20260506021320 | 20 | 34 | 6.4 | 14.5 | 0.00 | 0.00 | 0.00 | 55 | 1012.0 |
| 20260506020817 | 20 | 85 | 9.7 | 16.1 | 0.00 | 0.00 | 0.00 | 55 | 1011.8 |
| 20260506020315 | 21 | 113 | 8.0 | 14.5 | 0.00 | 0.00 | 0.00 | 55 | 1011.7 |
| 20260506015813 | 21 | 94 | 11.3 | 16.1 | 0.00 | 0.00 | 0.00 | 54 | 1011.9 |
| 20260506015310 | 20 | 33 | 6.4 | 11.3 | 0.00 | 0.00 | 0.00 | 55 | 1011.9 |
| 20260506014806 | 21 | 83 | 3.2 | 11.3 | 0.00 | 0.00 | 0.00 | 54 | 1011.9 |
| 20260506014303 | 21 | 23 | 6.4 | 11.3 | 0.00 | 0.00 | 0.00 | 54 | 1011.7 |
| 20260506013800 | 20 | 105 | 12.9 | 22.5 | 0.00 | 0.00 | 0.00 | 54 | 1011.9 |
| 20260506013257 | 20 | 78 | 9.7 | 11.3 | 0.00 | 0.00 | 0.00 | 54 | 1011.8 |
| 20260506012753 | 20 | 32 | 6.4 | 9.7 | 0.00 | 0.00 | 0.00 | 55 | 1011.7 |
| 20260506012250 | 20 | 19 | 4.8 | 8.0 | 0.00 | 0.00 | 0.00 | 55 | 1011.8 |
| 20260506011748 | 20 | 328 | 0.0 | 9.7 | 0.00 | 0.00 | 0.00 | 55 | 1011.7 |
| 20260506011244 | 20 | 269 | 3.2 | 9.7 | 0.00 | 0.00 | 0.00 | 55 | 1011.6 |
| 20260506010743 | 20 | 21 | 6.4 | 9.7 | 0.00 | 0.00 | 0.00 | 55 | 1011.6 |
| 20260506010239 | 20 | 81 | 6.4 | 9.7 | 0.00 | 0.00 | 0.00 | 55 | 1011.4 |
| 20260506005737 | 20 | 45 | 6.4 | 8.0 | 0.00 | 0.00 | 0.00 | 55 | 1011.2 |
| 20260506005233 | 20 | 82 | 4.8 | 16.1 | 0.00 | 0.00 | 0.00 | 55 | 1011.3 |
| 20260506004729 | 20 | 54 | 6.4 | 8.0 | 0.00 | 0.00 | 0.00 | 54 | 1011.3 |
| 20260506004227 | 20 | 92 | 3.2 | 12.9 | 0.00 | 0.00 | 0.00 | 54 | 1011.4 |
| 20260506003723 | 20 | 58 | 3.2 | 20.9 | 0.00 | 0.00 | 0.00 | 54 | 1011.3 |
| 20260506003219 | 21 | 42 | 9.7 | 9.7 | 0.00 | 0.00 | 0.00 | 54 | 1011.2 |
| 20260506002715 | 21 | 108 | 6.4 | 9.7 | 0.00 | 0.00 | 0.00 | 53 | 1011.1 |
| 20260506002212 | 21 | 50 | 6.4 | 9.7 | 0.00 | 0.00 | 0.00 | 54 | 1011.0 |
| 20260506001707 | 21 | 9 | 8.0 | 12.9 | 0.00 | 0.00 | 0.00 | 53 | 1011.0 |
| 20260506001205 | 21 | 57 | 3.2 | 11.3 | 0.00 | 0.00 | 0.00 | 53 | 1010.9 |
| 20260506000702 | 21 | 9 | 3.2 | 9.7 | 0.00 | 0.00 | 0.00 | 54 | 1010.8 |
| 20260506000200 | 21 | 28 | 4.8 | 8.0 | 0.00 | 0.00 | 0.00 | 53 | 1010.8 |
| 20260505235657 | 21 | 53 | 3.2 | 4.8 | 0.00 | 0.00 | 0.00 | 52 | 1010.8 |
| 20260505235155 | 22 | 55 | 4.8 | 6.4 | 0.00 | 0.00 | 0.00 | 51 | 1010.9 |
| 20260505234651 | 22 | 44 | 8.0 | 8.0 | 0.00 | 0.00 | 0.00 | 51 | 1010.5 |
| 20260505234148 | 22 | 44 | 4.8 | 8.0 | 0.00 | 0.00 | 0.00 | 51 | 1010.6 |
| 20260505233645 | 22 | 77 | 6.4 | 6.4 | 0.00 | 0.00 | 0.00 | 51 | 1010.5 |
| 20260505233142 | 22 | 79 | 8.0 | 8.0 | 0.00 | 0.00 | 0.00 | 51 | 1010.4 |
| 20260505232640 | 22 | 4 | 3.2 | 8.0 | 0.00 | 0.00 | 0.00 | 50 | 1010.2 |
| 20260505232137 | 22 | 63 | 6.4 | 9.7 | 0.00 | 0.00 | 0.00 | 50 | 1010.2 |
| 20260505231634 | 22 | 71 | 4.8 | 9.7 | 0.00 | 0.00 | 0.00 | 49 | 1010.2 |
| 20260505231133 | 23 | 60 | 6.4 | 9.7 | 0.00 | 0.00 | 0.00 | 48 | 1010.0 |
| 20260505230631 | 23 | 66 | 3.2 | 12.9 | 0.00 | 0.00 | 0.00 | 47 | 1009.8 |
| 20260505230126 | 23 | 105 | 8.0 | 9.7 | 0.00 | 0.00 | 0.00 | 46 | 1010.0 |
| 20260505225623 | 23 | 61 | 8.0 | 14.5 | 0.00 | 0.00 | 0.00 | 45 | 1009.8 |
| 20260505225119 | 23 | 120 | 11.3 | 17.7 | 0.00 | 0.00 | 0.00 | 44 | 1009.8 |
| 20260505224616 | 23 | 37 | 4.8 | 14.5 | 0.00 | 0.00 | 0.00 | 44 | 1009.5 |
| 20260505224114 | 24 | 56 | 8.0 | 16.1 | 0.00 | 0.00 | 0.00 | 43 | 1009.8 |
| 20260505223611 | 24 | 73 | 4.8 | 12.9 | 0.00 | 0.00 | 0.00 | 43 | 1009.5 |
| 20260505223107 | 24 | 38 | 8.0 | 9.7 | 0.00 | 0.00 | 0.00 | 43 | 1009.6 |
| 20260505222603 | 25 | 44 | 6.4 | 11.3 | 0.00 | 0.00 | 0.00 | 42 | 1009.5 |
| 20260505222059 | 25 | 0 | 8.0 | 9.7 | 0.00 | 0.00 | 0.00 | 41 | 1009.5 |
| 20260505221557 | 25 | 46 | 6.4 | 6.4 | 0.00 | 0.00 | 0.00 | 40 | 1009.5 |
| 20260505221053 | 25 | 108 | 8.0 | 14.5 | 0.00 | 0.00 | 0.00 | 40 | 1009.2 |
| 20260505220550 | 25 | 59 | 4.8 | 11.3 | 0.00 | 0.00 | 0.00 | 41 | 1009.0 |
| 20260505220048 | 25 | 94 | 6.4 | 9.7 | 0.00 | 0.00 | 0.00 | 41 | 1009.2 |
| 20260505215546 | 24 | 40 | 6.4 | 8.0 | 0.00 | 0.00 | 0.00 | 41 | 1009.3 |
| 20260505215043 | 24 | 53 | 3.2 | 8.0 | 0.00 | 0.00 | 0.00 | 42 | 1009.3 |
| 20260505214542 | 24 | 87 | 1.6 | 8.0 | 0.00 | 0.00 | 0.00 | 44 | 1009.3 |
| 20260505214038 | 24 | 48 | 3.2 | 6.4 | 0.00 | 0.00 | 0.00 | 43 | 1009.2 |
| 20260505213536 | 24 | 9 | 1.6 | 12.9 | 0.00 | 0.00 | 0.00 | 42 | 1009.2 |
| 20260505213032 | 24 | 119 | 1.6 | 4.8 | 0.00 | 0.00 | 0.00 | 43 | 1009.1 |
| 20260505212528 | 24 | 78 | 6.4 | 6.4 | 0.00 | 0.00 | 0.00 | 42 | 1009.2 |
| 20260505212026 | 25 | 6 | 1.6 | 6.4 | 0.00 | 0.00 | 0.00 | 41 | 1009.2 |
| 20260505211523 | 25 | 37 | 4.8 | 8.0 | 0.00 | 0.00 | 0.00 | 40 | 1009.1 |
| 20260505211019 | 25 | 18 | 3.2 | 6.4 | 0.00 | 0.00 | 0.00 | 40 | 1009.0 |
| 20260505210516 | 25 | 348 | 4.8 | 9.7 | 0.00 | 0.00 | 0.00 | 39 | 1009.2 |
| 20260505210014 | 25 | 35 | 3.2 | 6.4 | 0.00 | 0.00 | 0.00 | 41 | 1009.2 |
| 20260505205512 | 25 | 149 | 3.2 | 8.0 | 0.00 | 0.00 | 0.00 | 39 | 1008.9 |
| 20260505205008 | 25 | 356 | 3.2 | 6.4 | 0.00 | 0.00 | 0.00 | 37 | 1008.8 |
| 20260505204506 | 25 | 59 | 0.0 | 6.4 | 0.00 | 0.00 | 0.00 | 41 | 1009.2 |
| 20260505204003 | 25 | 16 | 0.0 | 6.4 | 0.00 | 0.00 | 0.00 | 42 | 1009.2 |
| 20260505203459 | 25 | 98 | 1.6 | 8.0 | 0.00 | 0.00 | 0.00 | 42 | 1009.3 |
| 20260505202955 | 25 | 346 | 6.4 | 6.4 | 0.00 | 0.00 | 0.00 | 42 | 1009.2 |
| 20260505202453 | 25 | 106 | 3.2 | 8.0 | 0.00 | 0.00 | 0.00 | 41 | 1009.1 |
| 20260505201948 | 25 | 61 | 6.4 | 9.7 | 0.00 | 0.00 | 0.00 | 41 | 1009.3 |
| 20260505201446 | 25 | 119 | 8.0 | 8.0 | 0.00 | 0.00 | 0.00 | 40 | 1009.2 |
| 20260505200943 | 26 | 105 | 4.8 | 17.7 | 0.00 | 0.00 | 0.00 | 40 | 1009.3 |
| 20260505200441 | 26 | 42 | 3.2 | 8.0 | 0.00 | 0.00 | 0.00 | 40 | 1009.4 |
| 20260505195936 | 26 | 76 | 3.2 | 11.3 | 0.00 | 0.00 | 0.00 | 40 | 1009.4 |
| 20260505195434 | 26 | 344 | 3.2 | 6.4 | 0.00 | 0.00 | 0.00 | 40 | 1009.4 |
| 20260505194931 | 25 | 300 | 3.2 | 8.0 | 0.00 | 0.00 | 0.00 | 41 | 1009.8 |
| 20260505194428 | 25 | 77 | 8.0 | 8.0 | 0.00 | 0.00 | 0.00 | 42 | 1009.9 |
| 20260505193928 | 25 | 35 | 3.2 | 4.8 | 0.00 | 0.00 | 0.00 | 42 | 1009.8 |
| 20260505193426 | 25 | 49 | 0.0 | 8.0 | 0.00 | 0.00 | 0.00 | 43 | 1009.7 |
| 20260505192924 | 25 | 144 | 3.2 | 6.4 | 0.00 | 0.00 | 0.00 | 43 | 1010.0 |
| 20260505192422 | 25 | 86 | 0.0 | 6.4 | 0.00 | 0.00 | 0.00 | 44 | 1010.1 |
| 20260505191919 | 25 | 52 | 1.6 | 6.4 | 0.00 | 0.00 | 0.00 | 44 | 1010.2 |
| 20260505191418 | 25 | 94 | 6.4 | 6.4 | 0.00 | 0.00 | 0.00 | 44 | 1010.3 |
| 20260505190914 | 24 | 306 | 1.6 | 9.7 | 0.00 | 0.00 | 0.00 | 45 | 1010.2 |
| 20260505190409 | 24 | 79 | 3.2 | 6.4 | 0.00 | 0.00 | 0.00 | 46 | 1010.5 |
| 20260505185905 | 24 | 30 | 6.4 | 9.7 | 0.00 | 0.00 | 0.00 | 45 | 1010.6 |
| 20260505185402 | 24 | 359 | 4.8 | 8.0 | 0.00 | 0.00 | 0.00 | 47 | 1010.7 |
| 20260505184858 | 23 | 56 | 4.8 | 8.0 | 0.00 | 0.00 | 0.00 | 47 | 1010.8 |
| 20260505184355 | 23 | 49 | 3.2 | 11.3 | 0.00 | 0.00 | 0.00 | 48 | 1010.9 |
| 20260505183852 | 23 | 156 | 4.8 | 9.7 | 0.00 | 0.00 | 0.00 | 48 | 1011.0 |
| 20260505183349 | 23 | 147 | 6.4 | 9.7 | 0.00 | 0.00 | 0.00 | 48 | 1011.0 |
| 20260505182846 | 23 | 114 | 4.8 | 9.7 | 0.00 | 0.00 | 0.00 | 48 | 1010.8 |
| 20260505182343 | 23 | 41 | 3.2 | 12.9 | 0.00 | 0.00 | 0.00 | 49 | 1010.9 |
| 20260505181839 | 23 | 141 | 6.4 | 9.7 | 0.00 | 0.00 | 0.00 | 48 | 1010.9 |
| 20260505181336 | 23 | 101 | 4.8 | 9.7 | 0.00 | 0.00 | 0.00 | 49 | 1011.0 |
| 20260505180833 | 24 | 153 | 19.3 | 19.3 | 0.00 | 0.00 | 0.00 | 48 | 1010.9 |
| 20260505180330 | 24 | 50 | 4.8 | 9.7 | 0.00 | 0.00 | 0.00 | 48 | 1011.1 |
| 20260505175826 | 24 | 132 | 9.7 | 9.7 | 0.00 | 0.00 | 0.00 | 47 | 1011.2 |
| 20260505175323 | 23 | 42 | 3.2 | 6.4 | 0.00 | 0.00 | 0.00 | 47 | 1011.2 |
| 20260505174819 | 23 | 69 | 6.4 | 11.3 | 0.00 | 0.00 | 0.00 | 48 | 1011.3 |
| 20260505174317 | 23 | 114 | 4.8 | 14.5 | 0.00 | 0.00 | 0.00 | 49 | 1011.2 |
| 20260505173812 | 25 | 114 | 8.0 | 16.1 | 0.00 | 0.00 | 0.00 | 46 | 1011.2 |
| 20260505173309 | 25 | 20 | 1.6 | 6.4 | 0.00 | 0.00 | 0.00 | 43 | 1011.2 |
| 20260505172806 | 25 | 109 | 4.8 | 6.4 | 0.00 | 0.00 | 0.00 | 43 | 1011.4 |
| 20260505172306 | 25 | 168 | 1.6 | 6.4 | 0.00 | 0.00 | 0.00 | 43 | 1011.3 |
| 20260505171758 | 25 | 299 | 4.8 | 6.4 | 0.00 | 0.00 | 0.00 | 43 | 1011.3 |
| 20260505171255 | 25 | 63 | 6.4 | 17.7 | 0.00 | 0.00 | 0.00 | 43 | 1011.4 |
| 20260505170752 | 26 | 67 | 1.6 | 6.4 | 0.00 | 0.00 | 0.00 | 43 | 1011.4 |
| 20260505170249 | 25 | 48 | 3.2 | 6.4 | 0.00 | 0.00 | 0.00 | 42 | 1011.4 |
| 20260505165750 | 25 | 86 | 9.7 | 17.7 | 0.00 | 0.00 | 0.00 | 41 | 1011.2 |
| 20260505165246 | 25 | 101 | 6.4 | 9.7 | 0.00 | 0.00 | 0.00 | 41 | 1011.5 |
| 20260505164741 | 25 | 339 | 6.4 | 8.0 | 0.00 | 0.00 | 0.00 | 42 | 1011.6 |
| 20260505164239 | 25 | 63 | 3.2 | 6.4 | 0.00 | 0.00 | 0.00 | 42 | 1011.8 |
| 20260505163737 | 25 | 323 | 3.2 | 8.0 | 0.00 | 0.00 | 0.00 | 43 | 1011.7 |
| 20260505163235 | 25 | 23 | 4.8 | 9.7 | 0.00 | 0.00 | 0.00 | 43 | 1011.8 |
| 20260505162732 | 25 | 32 | 3.2 | 4.8 | 0.00 | 0.00 | 0.00 | 43 | 1011.8 |
| 20260505162229 | 25 | 78 | 3.2 | 6.4 | 0.00 | 0.00 | 0.00 | 44 | 1011.9 |
| 20260505161726 | 25 | 2 | 3.2 | 8.0 | 0.00 | 0.00 | 0.00 | 44 | 1011.9 |
| 20260505161224 | 25 | 52 | 6.4 | 8.0 | 0.00 | 0.00 | 0.00 | 45 | 1012.2 |
| 20260505160721 | 25 | 338 | 0.0 | 4.8 | 0.00 | 0.00 | 0.00 | 43 | 1012.2 |
| 20260505160219 | 24 | 47 | 0.0 | 9.7 | 0.00 | 0.00 | 0.00 | 43 | 1012.2 |
| 20260505153158 | 23 | 59 | 6.4 | 9.7 | 0.00 | 0.00 | 0.00 | 46 | 1012.5 |
| 20260505152654 | 23 | 67 | 9.7 | 12.9 | 0.00 | 0.00 | 0.00 | 46 | 1012.4 |
| 20260505152150 | 23 | 36 | 8.0 | 9.7 | 0.00 | 0.00 | 0.00 | 46 | 1012.5 |
| 20260505151646 | 23 | 58 | 8.0 | 11.3 | 0.00 | 0.00 | 0.00 | 47 | 1012.5 |
| 20260505151143 | 22 | 95 | 6.4 | 9.7 | 0.00 | 0.00 | 0.00 | 47 | 1012.7 |
| 20260505150639 | 22 | 101 | 8.0 | 14.5 | 0.00 | 0.00 | 0.00 | 47 | 1012.6 |
| 20260505150136 | 22 | 62 | 4.8 | 8.0 | 0.00 | 0.00 | 0.00 | 48 | 1012.7 |